Location: Unspecified
(0.0000°N, 0.0000°E)
Time: 20:37:48
(UTC+00:00)

Tiangong 1 - Pass Details

Date: 15 December 2017
Orbit: 274 x 300 km, 42.8° (Epoch: 18 December)

Event Time Altitude Azimuth Distance (km) Brightness Sun altitude
Exits shadow 04:13:11 - 168° (SSE) 1,223 4.1 -23.3°
Reaches altitude 10° 04:13:53 10° 154° (SSE) 1,099 4.0 -23.1°
Maximum altitude 04:14:40 11° 135° (SE) 1,046 4.2 -22.9°
Drops below altitude 10° 04:15:28 10° 116° (ESE) 1,101 4.5 -22.8°
Sets 04:18:24 0° 77° (ENE) 1,920 5.4 -22.1°
